Weather in Moscow

United States     46°43′45″N   116°59′51″W
temp.,
°C
wind,
m/s
gust,
m/s
humid.,
%
clouds,
%
prec.,
mm/h
press.,
hPa
HPBL,
m
16 may, sun
sun1623:00+12n11562 0.0 101210
02:00+11e11591 0.0 101210
05:00+9e22654 0.0 101311
08:00+15ese23635 0.0 1013170
11:00+21s114916 0.0 1011694
14:00+23w213619 0.0 10101857
17:00+23wnw22385 0.0 10081478
20:00+17nnw22550 0.0 100711
17 may, mon
mon1723:00+14ese22550 0.0 100811
02:00+12ese22600 0.0 100811
05:00+11ese22690 0.0 100811
08:00+16sse23655 0.0 1008239
11:00+20wsw8114526 0.0 10081473
14:00+21wsw911435 0.0 10071428
17:00+19w813463 0.0 10061318
20:00+14wsw6154898 0.0 1008598
18 may, tue
tue1823:00+12wsw6145249 0.0 1011657
02:00+10wsw7146347 0.0 1012841
05:00+7wsw6147719 0.0 1014856
08:00+9wsw91571100 0.0 10161357
11:00+10wsw101350100 0.0 10171656
14:00+12wsw9123749 0.0 10152038
17:00+12wsw7940100 0.0 10152222
20:00+9wsw41045100 0.0 1015396
19 may, wed
wed1923:00+7wsw364778 0.0 1016227
02:00+4s1157100 0.0 101610
05:00+4sse115899 0.0 101610
08:00+8w2351100 0.0 1015555
11:00+11w3246100 0.0 10131749
14:00+10wnw3346100 0.0 10121709
17:00+11wsw1245100 0.0 10111709
20:00+7s2265100 0.1 101121
20 may, thu
thu2023:00+4e228833 0.1 101310
02:00+3e119278 0.0 101310
05:00+2s009360 0.0 101410
08:00+7wnw336493 0.0 1014583
11:00+10nnw345786 0.1 10131490
14:00+11nnw345980 0.6 10121317
17:00+12nnw565463 0.8 10101186
20:00+9n2266100 0.1 101120